Location: Prosper
(33.2362°N, 96.8011°W)
Time: 00:53:03
(UTC+00:00)

Cosmos 1697 Rocket - Pass Details

Date: 03 December 2021
Orbit: 833 x 842 km, 71.0° (Epoch: 17 January)

Event Time Altitude Azimuth Distance (km) Brightness Sun altitude
Rises 23:45:48 0° 347° (NNW) 3,384 5.7 -5.8°
Reaches altitude 10° 23:48:23 10° 354° (N) 2,447 5.0 -6.3°
Maximum altitude 23:53:41 42° 65° (ENE) 1,172 3.0 -7.3°
Drops below altitude 10° 23:58:58 10° 136° (SE) 2,440 4.9 -8.4°
Sets 00:01:32 0° 143° (SE) 3,372 5.7 -8.9°
